Location: Antelope Hills Observatory
(39.6967°N, 104.4114°W)
Time: 17:27:06
(UTC-06:00)

Tiangong 2 - Visible Passes

Search period start: 19 July 2018 00:00
Search period end: 29 July 2018 00:00
Orbit: 386 x 394 km, 42.8° (Epoch: 19 July)

Date Brightness Start Highest point End Pass type
(mag) Time Alt. Az. Time Alt. Az. Time Alt. Az.
19 Jul 1.2 22:07:24 10° WNW 22:10:34 72° NNE 22:11:19 47° E visible
20 Jul 1.7 21:09:41 10° WNW 21:12:49 54° N 21:15:56 10° E visible
20 Jul 2.8 22:46:38 10° W 22:48:20 26° W 22:48:20 26° W visible
21 Jul 1.0 21:48:51 10° WNW 21:52:01 72° SSW 21:53:03 38° SE visible
22 Jul 1.2 20:51:07 10° WNW 20:54:18 76° NNE 20:57:29 10° ESE visible
22 Jul 3.0 22:28:21 10° W 22:30:06 21° WSW 22:30:06 21° WSW visible
23 Jul 1.8 21:30:22 10° W 21:33:22 39° SSW 21:34:52 23° SSE visible
24 Jul 3.6 22:10:42 10° WSW 22:11:59 12° SW 22:11:59 12° SW visible
25 Jul 2.9 21:12:05 10° W 21:14:36 21° SSW 21:16:50 11° SSE visible
27 Jul 3.8 20:54:38 10° WSW 20:55:44 11° SW 20:56:50 10° SSW visible
